Location: Newark
(52.4787°S, 179.0532°W)
Time: 23:41:37
(UTC+00:00)

Vanguard 1 - Pass Details

Date: 25 November 2019
Orbit: 652 x 3831 km, 34.2° (Epoch: 05 December)

Event Time Altitude Azimuth Distance (km) Brightness Sun altitude
Rises 08:23:38 0° 329° (NNW) 4,481 13.3 -5.0°
Reaches altitude 10° 08:26:50 10° 342° (NNW) 3,892 12.9 -5.3°
Maximum altitude 08:35:12 26° 33° (NNE) 3,712 12.4 -6.2°
Drops below altitude 10° 08:47:50 10° 80° (E) 6,041 13.6 -7.5°
Sets 08:54:32 0° 89° (E) 7,508 14.2 -8.2°
